Highspire, PA

12:06 AM EDT on July 30, 2016 (GMT -0400)
Harrisburg International

Weather History for KMDT - April, 2014

Change the Weather History Date:

Wednesday, April 16, 2014

  Actual Average Record
Temperature  
Mean Temperature 39 °F 52 °F  
Max Temperature 48 °F 63 °F 89 °F (2002)
Min Temperature 30 °F 42 °F 25 °F (1943)
Degree Days  
Heating Degree Days 26 13  
Month to date heating degree days 219 248  
Since 1 July heating degree days 5437 4959  
Cooling Degree Days 0 0  
Month to date cooling degree days 6 0  
Year to date cooling degree days 6 1  
Moisture  
Dew Point 14 °F    
Average Humidity 37    
Maximum Humidity 47    
Minimum Humidity 26    
Precipitation  
Precipitation 0.00 in 0.09 in 3.46 in (2011)
Month to date precipitation 2.12 1.66  
Year to date precipitation 12.71 10.30  
Snow  
Snow 0.00 in 0.00 in 0.10 in (1943)
Month to date snowfall T 0.3  
Since 1 July snowfall 44.0 30.5  
Snow Depth 0.00 in    
Sea Level Pressure  
Sea Level Pressure 30.39 in    
Wind  
Wind Speed 10 mph (North)    
Max Wind Speed 25 mph    
Max Gust Speed 32 mph    
Visibility 10 miles    
Events      
T = Trace of Precipitation, MM = Missing Value Source: NWS Daily Summary

Daily Weather History Graph

Daily Weather History Graph

Search for Another Location

Airport or City:

Trip Planner

Search our weather history database for the weather conditions in past years. The results will help you decide how hot, cold, wet, or windy it might be!

Date:

Astronomy

Apr. 16, 2014 Rise Set
Actual Time 6:27 AM EDT 7:46 PM EDT
Civil Twilight 5:59 AM EDT 8:15 PM EDT
Nautical Twilight 5:25 AM EDT 8:48 PM EDT
Astronomical Twilight 4:50 AM EDT 9:24 PM EDT
Moon 9:28 PM EDT (4/16) 7:13 AM EDT (4/16)
Length of Visible Light 14h 15m
Length of Day
13h 19m
Full, 98% of the Moon is Illuminated
Apr 16
Full
Apr 22
Last Quarter
Apr 29
New
May 6
First Quarter
May 14
Full

Hourly Weather History & Observations

Time (EDT) Temp. Windchill Dew Point Humidity Pressure Visibility Wind Dir Wind Speed Gust Speed Precip Events Conditions
12:56 AM 35.1 °F 25.5 °F 18.0 °F 50% 30.09 in 10.0 mi NNW 15.0 mph 28.8 mph N/A   Mostly Cloudy
1:56 AM 34.0 °F 23.4 °F 16.0 °F 48% 30.12 in 10.0 mi NW 17.3 mph 25.3 mph N/A   Scattered Clouds
2:56 AM 33.1 °F 22.6 °F 15.1 °F 48% 30.13 in 10.0 mi NNW 16.1 mph 24.2 mph N/A   Partly Cloudy
3:56 AM 32.0 °F 19.8 °F 12.0 °F 44% 30.18 in 10.0 mi NW 20.7 mph - N/A   Partly Cloudy
4:56 AM 30.9 °F 18.4 °F 12.0 °F 46% 30.22 in 10.0 mi NW 20.7 mph 28.8 mph N/A   Partly Cloudy
5:56 AM 30.9 °F 21.2 °F 10.9 °F 43% 30.27 in 10.0 mi NNW 12.7 mph - N/A   Clear
6:56 AM 30.0 °F 19.1 °F 10.0 °F 43% 30.31 in 10.0 mi NNW 15.0 mph - N/A   Clear
7:56 AM 30.9 °F 19.4 °F 7.0 °F 37% 30.37 in 10.0 mi North 17.3 mph 23.0 mph N/A   Clear
8:56 AM 32.0 °F 22.5 °F 9.0 °F 38% 30.40 in 10.0 mi North 12.7 mph 25.3 mph N/A   Clear
9:56 AM 35.1 °F 24.8 °F 10.9 °F 37% 30.43 in 10.0 mi NW 17.3 mph 23.0 mph N/A   Clear
10:56 AM 36.0 °F 27.5 °F 10.9 °F 36% 30.45 in 10.0 mi North 12.7 mph 21.9 mph N/A   Clear
11:56 AM 39.0 °F 31.0 °F 12.9 °F 34% 30.48 in 10.0 mi NNW 13.8 mph - N/A   Mostly Cloudy
12:56 PM 41.0 °F 35.2 °F 14.0 °F 33% 30.48 in 10.0 mi North 9.2 mph - N/A   Clear
1:56 PM 44.1 °F 38.6 °F 14.0 °F 30% 30.48 in 10.0 mi North 10.4 mph 18.4 mph N/A   Partly Cloudy
2:56 PM 45.0 °F 38.9 °F 14.0 °F 29% 30.48 in 10.0 mi North 12.7 mph - N/A   Partly Cloudy
3:56 PM 46.0 °F 42.5 °F 14.0 °F 28% 30.46 in 10.0 mi North 6.9 mph - N/A   Clear
4:56 PM 46.9 °F - 15.1 °F 28% 30.45 in 10.0 mi North 9.2 mph - N/A   Partly Cloudy
5:56 PM 46.9 °F - 14.0 °F 27% 30.45 in 10.0 mi NNE 4.6 mph - N/A   Scattered Clouds
6:56 PM 46.0 °F 43.9 °F 14.0 °F 28% 30.47 in 10.0 mi Variable 4.6 mph - N/A   Scattered Clouds
7:56 PM 45.0 °F 43.5 °F 15.1 °F 30% 30.48 in 10.0 mi North 3.5 mph - N/A   Scattered Clouds
8:56 PM 44.1 °F 42.5 °F 18.0 °F 35% 30.51 in 10.0 mi North 3.5 mph - N/A   Scattered Clouds
9:56 PM 42.1 °F - 19.9 °F 41% 30.53 in 10.0 mi Calm Calm - N/A   Scattered Clouds
10:56 PM 41.0 °F 38.0 °F 17.1 °F 38% 30.54 in 10.0 mi East 4.6 mph - N/A   Partly Cloudy
11:56 PM 39.0 °F 36.8 °F 16.0 °F 39% 30.55 in 10.0 mi ENE 3.5 mph - N/A   Scattered Clouds